Regional Weather Roundup
Issued by NWS Green Bay, WI

Home | Current Version | Previous Version | Graphics & Text | Print | Product List | Glossary Off
Versions: 1 2 3 4 5 6 7 8 9 10 11 12 13 14 15 16 17 18 19 20 21 22 23 24 25 26 27 28 29 30 31 32 33 34 35 36 37 38 39 40 41 42 43 44 45 46 47 48 49 50

000
ASUS43 KGRB 251300
RWRGRB

NORTH-CENTRAL AND NORTHEAST WISCONSIN REGIONAL WEATHER ROUNDUP
NATIONAL WEATHER SERVICE GREEN BAY WI
800 AM CDT MON MAY 25 2015

WIZ005-009-010>012-018-019-251400-
NORTH CENTRAL WISCONSIN

CITY           SKY/WX    TMP DP  RH WIND       PRES   REMARKS
IRONWOOD       CLOUDY    57  57 100 E12       29.70F
MANITOWISH WTR NOT AVBL
ARBOR VITAE    NOT AVBL
EAGLE RIVER    NOT AVBL
LAND O LAKES   NOT AVBL
RHINELANDER    LGT RAIN  57  56  96 SE9       29.74F VSB 3/4
PHILLIPS       NOT AVBL
ANTIGO         NOT AVBL
TOMAHAWK       NOT AVBL
MERRILL        NOT AVBL
$$

WIZ013-073-251400-
NORTHEAST WISCONSIN

CITY           SKY/WX    TMP DP  RH WIND       PRES   REMARKS
IRON MOUNTAIN  LGT RAIN  56  55  97 VRB3      29.77F
MARINETTE      CLOUDY    54  52  94 SE7       29.78F
$$

WIZ017-030-035>037-045-251400-
CENTRAL WISCONSIN

CITY           SKY/WX    TMP DP  RH WIND       PRES   REMARKS
MEDFORD        NOT AVBL
WAUSAU         LGT RAIN  60  59  96 SE6       29.72S FOG
MOSINEE        LGT RAIN  57  57 100 E5        29.74  VSB 1
MARSHFIELD     LGT RAIN  63  61  93 S8        29.72S FOG
WISC RAPIDS    LGT RAIN  63  61  93 S5        29.73S
STEVENS POINT  NOT AVBL
WAUPACA        NOT AVBL
SHAWANO        NOT AVBL
CLINTONVILLE   NOT AVBL
$$

WIZ038-039-048-051-251400-
FOX VALLEY

CITY           SKY/WX    TMP DP  RH WIND       PRES   REMARKS
NWS GREEN BAY  CLOUDY    63  61  93 E6        29.76F FOG
APPLETON       LGT RAIN  64  64 100 SE8       29.75F
OSHKOSH        CLOUDY    67  63  87 S10       29.74F
FOND DU LAC    CLOUDY    67  63  87 S13       29.75F
$$

WIZ022-050-052-251400-
EAST CENTRAL WISCONSIN

CITY           SKY/WX    TMP DP  RH WIND       PRES   REMARKS
STURGEON BAY   CLOUDY    55  52  88 SE9       29.82F VSB 1/2
MANITOWOC      NOT AVBL
SHEBOYGAN      CLOUDY    58  57  97 S8        29.78F FOG
$$

LMZ563-521-522-541>543-251400-
LAKESHORE

STATION/POSITION TIME  TEMP    WIND        PRES    VSBY  WAVE
                       AIR SEA DIR/SP/G                  HT/PER
                 (UTC) (F)     (DEG/KT/KT) (MB)    (MI)  (FT/S)
SHEBOYGAN LKSHOR 1200   47     170/ 10/ 11 1009.9F
KEWAUNEE LKSHORE 1200   47     180/  8/  9 1008.8F
TWO RIVERS CG    1155   47                 1009.7   3 1/2  0
NORTHPORT PIER   1200   49     140/  6/  9 1010.2F
N MID LAKE BUOY  1150   44 36  110/ 12/ 12 1010.4F         1/ 3
STURGEON BAY CG  1200   47     110/  4     1012.1   1 1/4  1
CHAMBERS ISLAND  1200   54     120/  4/  7 1009.8S
MENOMINEE LKSHOR 1200   53     120/  3/  4 1009.8F
$$



USA.gov is the U.S. government's official web portal to all federal, state and local government web resources and services.